NUSAT-6 (HYPATIA) 1 46272U 20061A 21110.95244675 .00002022 00000-0 91555-4 0 9992 2 46272 97.3712 185.7868 0008648 109.5654 250.6517 15.21989802 34920 ESAIL 1 46273U 20061B 21110.93992945 .00001528 00000-0 83900-4 0 9996 2 46273 97.4401 185.6925 0006872 142.6249 217.5464 15.15588064 34803 ION-MK01 1 46274U 20061C 21110.81223596 .00000915 00000-0 51785-4 0 9998 2 46274 97.4390 185.5634 0007117 144.8688 215.3015 15.15485898 34787 ATHENA 1 46275U 20061D 21110.76467072 .00000738 00000-0 41592-4 0 9990 2 46275 97.4348 185.6465 0001930 132.3814 227.7583 15.16208981 34799 UPMSAT-2 1 46276U 20061E 21110.81187139 .00000988 00000-0 54287-4 0 9992 2 46276 97.4351 185.7422 0001775 141.3167 218.8193 15.16384710 34801 NEMO-HD 1 46277U 20061F 21110.90066490 .00000541 00000-0 31315-4 0 9991 2 46277 97.4341 185.8197 0001615 139.6511 333.2776 15.16310716 34812 GHGSAT-C1 1 46278U 20061G 21110.96528728 .00001265 00000-0 67917-4 0 9996 2 46278 97.4366 185.9911 0000541 288.0644 72.0532 15.16702804 34831 SIMBA 1 46279U 20061H 21110.76603210 .00001569 00000-0 99790-4 0 9996 2 46279 97.4908 185.2360 0002655 283.9720 76.1214 15.10244403 34621 TRISAT 1 46280U 20061J 21110.76809090 .00001356 00000-0 86893-4 0 9996 2 46280 97.4902 185.2233 0002371 281.3801 78.7162 15.10169305 34631 PICASSO-BEL 1 46281U 20061K 21110.74251359 .00002502 00000-0 15583-3 0 9995 2 46281 97.4902 185.2527 0002349 275.3959 84.7003 15.10474756 34641 FLOCK 4V-9 1 46282U 20061L 21110.87924633 .00003094 00000-0 19170-3 0 9995 2 46282 97.4903 185.3854 0002057 278.6633 81.4364 15.10489077 34655 FLOCK 4V-12 1 46283U 20061M 21110.80738075 .00002611 00000-0 16234-3 0 9994 2 46283 97.4915 185.3438 0002038 275.6748 84.4249 15.10499147 34643 DIDO 3 1 46284U 20061N 21110.75098011 .00001432 00000-0 91327-4 0 9995 2 46284 97.4900 185.2377 0002052 275.6279 84.4717 15.10281251 34593 FLOCK 4V-11 1 46285U 20061P 21110.87407280 .00002364 00000-0 14735-3 0 9993 2 46285 97.4907 185.4025 0002047 274.3928 85.7068 15.10498096 34651 FLOCK 4V-14 1 46286U 20061Q 21110.80332927 .00002779 00000-0 17228-3 0 9992 2 46286 97.4907 185.3411 0001885 273.5278 86.5736 15.10555436 34640 AMICALSAT 1 46287U 20061R 21110.73932619 .00001457 00000-0 92615-4 0 9995 2 46287 97.4904 185.2652 0001333 320.9623 39.1510 15.10368002 34637 FLOCK 4V-8 1 46288U 20061S 21110.73195272 .00002000 00000-0 12519-3 0 9991 2 46288 97.4906 185.2787 0001200 310.8775 49.2350 15.10523945 34541 FLOCK 4V-6 1 46289U 20061T 21110.72825439 .00001242 00000-0 79142-4 0 9999 2 46289 97.4909 185.2894 0001138 304.6217 55.4905 15.10533807 34639 FLOCK 4V-5 1 46290U 20061U 21110.92367359 .00001452 00000-0 91805-4 0 9998 2 46290 97.4906 185.4810 0001125 305.4514 54.6611 15.10565885 34662 FLOCK 4V-7 1 46291U 20061V 21110.85409886 .00002228 00000-0 13855-3 0 9993 2 46291 97.4905 185.4271 0000886 310.2508 49.8644 15.10646027 34540 3CAT-5A 1 46292U 20061W 21110.77969255 .00000607 00000-0 40690-4 0 9993 2 46292 97.4901 185.3567 0002168 228.0208 132.0837 15.10438986 34623 3CAT-5B 1 46293U 20061X 21110.76782090 .00000806 00000-0 52677-4 0 9992 2 46293 97.4899 185.3671 0002183 221.2623 138.8442 15.10534472 34598 TYVAK-0088 1 46294U 20061Y 21110.74820125 .00002362 00000-0 14592-3 0 9995 2 46294 97.4899 185.4030 0002082 221.1544 138.9530 15.10821244 34627 TYVAK-0171 1 46295U 20061Z 21110.86412553 .00002480 00000-0 15220-3 0 9991 2 46295 97.4919 185.5757 0002290 218.7164 141.3903 15.11031019 34580 FLOCK 4V-10 1 46296U 20061AA 21110.67108073 .00001049 00000-0 67052-4 0 9991 2 46296 97.4913 185.3715 0001085 125.8840 234.2490 15.10757470 34596 FLOCK 4V-13 1 46297U 20061AB 21110.80161763 .00001662 00000-0 10395-3 0 9990 2 46297 97.4913 185.5012 0001193 127.4129 232.7209 15.10768862 34595 LEMUR-2-ETHANOAKES 1 46298U 20061AC 21110.87666781 .00003385 00000-0 20358-3 0 9992 2 46298 97.4914 185.7150 0001346 140.6035 219.5293 15.11512675 34603 LEMUR-2-OSCARLATOR 1 46299U 20061AD 21110.87797396 .00003453 00000-0 20777-3 0 9991 2 46299 97.4917 185.7208 0001399 137.4438 222.6901 15.11485448 34631 SPACEBEE-21 1 46300U 20061AE 21110.78469604 .00003351 00000-0 20008-3 0 9996 2 46300 97.4918 185.6906 0001627 133.9602 226.1763 15.11784423 34581 SPACEBEE-20 1 46301U 20061AF 21110.91516821 .00003155 00000-0 18856-3 0 9996 2 46301 97.4924 185.8330 0001629 133.5439 226.5927 15.11799569 34604 SPACEBEE-15 1 46302U 20061AG 21110.90814145 .00003785 00000-0 22478-3 0 9990 2 46302 97.4917 185.8297 0001638 129.4266 230.7109 15.11900037 34604 SPACEBEE-19 1 46303U 20061AH 21110.91231976 .00003469 00000-0 20669-3 0 9996 2 46303 97.4919 185.8300 0001662 133.1043 227.0327 15.11842589 34602 SPACEBEE-18 1 46304U 20061AJ 21110.91271846 .00003407 00000-0 20309-3 0 9990 2 46304 97.4918 185.8279 0001672 131.0640 229.0735 15.11831701 34607 SPACEBEE-10 1 46305U 20061AK 21110.89476198 .00004950 00000-0 29131-3 0 9991 2 46305 97.4921 185.8539 0001583 134.0861 226.0500 15.12087691 34609 SPACEBEE-17 1 46306U 20061AL 21110.90790050 .00003677 00000-0 21853-3 0 9998 2 46306 97.4919 185.8376 0001666 132.0670 228.0702 15.11893237 34644 SPACEBEE-11 1 46307U 20061AM 21110.89901881 .00004708 00000-0 27777-3 0 9990 2 46307 97.4919 185.8487 0001634 133.7065 226.4301 15.12022510 34601 SPACEBEE-16 1 46308U 20061AN 21110.90645475 .00003794 00000-0 22529-3 0 9991 2 46308 97.4920 185.8419 0001661 132.0595 228.0777 15.11910329 34607 SPACEBEE-12 1 46309U 20061AP 21110.90110831 .00004346 00000-0 25691-3 0 9992 2 46309 97.4919 185.8454 0001639 132.2592 227.8777 15.11988350 34605 SPACEBEE-13 1 46310U 20061AQ 21110.90348849 .00004188 00000-0 24793-3 0 9992 2 46310 97.4920 185.8440 0001665 131.7614 228.3758 15.11956016 34645 SPACEBEE-14 1 46311U 20061AR 21110.90366587 .00004007 00000-0 23748-3 0 9991 2 46311 97.4921 185.8446 0001664 131.4908 228.6465 15.11943146 34632 TTU100 1 46312U 20061AS 21110.94518218 .00002155 00000-0 13141-3 0 9994 2 46312 97.4910 185.8074 0002856 168.6726 295.1966 15.11387238 34642 FLOCK 4V-1 1 46313U 20061AT 21110.86938519 .00002150 00000-0 13151-3 0 9992 2 46313 97.4910 185.7136 0003032 172.3528 187.7749 15.11290113 34628 FLOCK 4V-4 1 46314U 20061AU 21110.67022351 .00001152 00000-0 72318-4 0 9992 2 46314 97.4912 185.5186 0003351 171.3561 188.7727 15.11227860 34642 LEMUR-2-SCHMIDTFALL 1 46315U 20061AV 21110.88698644 .00003758 00000-0 22321-3 0 9992 2 46315 97.4917 185.8669 0002950 152.1517 207.9872 15.11900515 34683 LEMUR-2-DJUPROERA 1 46316U 20061AW 21110.88138185 .00003789 00000-0 22466-3 0 9996 2 46316 97.4914 185.8619 0003108 153.9169 206.2218 15.11957045 34680 LEMUR-2-SQUAREJAWS 1 46317U 20061AX 21110.88247171 .00003757 00000-0 22301-3 0 9996 2 46317 97.4915 185.8644 0003076 151.8080 208.3318 15.11928523 34697 LEMUR-2-URSA-AVION 1 46318U 20061AY 21110.87801026 .00003652 00000-0 21664-3 0 9996 2 46318 97.4916 185.8697 0003288 149.9744 210.1675 15.11966750 34698 KEPLER-2 (TARS) 1 46319U 20061AZ 21110.78338653 .00001270 00000-0 79012-4 0 9993 2 46319 97.4910 185.6743 0003289 147.3576 212.7857 15.11386520 34678 NAPA-1 1 46320U 20061BA 21111.00227058 .00000765 00000-0 49206-4 0 9997 2 46320 97.4907 185.8875 0003770 140.2117 343.6234 15.11301185 34703 FLOCK 4V-2 1 46321U 20061BB 21110.86647937 .00002333 00000-0 14186-3 0 9994 2 46321 97.4913 185.7261 0003373 173.8761 186.2510 15.11420335 34555 FLOCK 4V-3 1 46322U 20061BC 21110.67036422 .00001114 00000-0 70017-4 0 9997 2 46322 97.4913 185.5170 0003108 170.3945 189.7345 15.11233668 34606 FLOCK 4V-16 1 46527U 20061BD 21110.87714178 .00003624 00000-0 19556-3 0 9995 2 46527 97.4423 185.5628 0009857 143.0548 217.1365 15.15331571 30813 FLOCK 4V-15 1 46528U 20061BE 21110.88718530 .00001033 00000-0 56507-4 0 9993 2 46528 97.4389 185.8965 0003513 155.6450 204.4950 15.16441268 31182 FLOCK 4V-17 1 46529U 20061BF 21110.77537013 .00001134 00000-0 61819-4 0 9991 2 46529 97.4359 185.6683 0003951 144.1583 215.9916 15.16356049 30361 FLOCK 4V-21 1 46596U 20061BK 21110.87421980 .00001272 00000-0 69321-4 0 9990 2 46596 97.4336 185.6476 0005370 131.0535 229.1162 15.16165555 28535 FLOCK 4V-18 1 46597U 20061BG 21110.89727225 .00003625 00000-0 19377-3 0 9993 2 46597 97.4460 185.7774 0008530 148.3480 211.8267 15.15685763 29753 FLOCK 4V-19 1 46609U 20061BH 21110.71736625 .00001203 00000-0 65311-4 0 9992 2 46609 97.4345 185.5611 0004785 129.9199 230.2455 15.16401286 29286 FLOCK 4V-20 1 46612U 20061BJ 21110.77944394 .00003241 00000-0 17421-3 0 9998 2 46612 97.4447 185.5931 0008742 153.9763 206.1911 15.15559030 28805 FLOCK 4V-22 1 46735U 20061BL 21110.91607839 .00002652 00000-0 14148-3 0 9998 2 46735 97.4309 185.5019 0006189 138.8817 221.2881 15.15997983 27659 FLOCK 4V-23 1 46737U 20061BM 21110.74809961 .00001315 00000-0 71571-4 0 9990 2 46737 97.4355 185.5531 0006034 129.8537 230.3227 15.16153039 27561 FLOCK 4V-24 1 46738U 20061BN 21110.90141441 .00005367 00000-0 28519-3 0 9995 2 46738 97.4471 185.7586 0006919 159.6451 200.5077 15.15692510 27160 FLOCK 4V-25 1 46812U 20061BP 21110.72793299 .00001596 00000-0 85526-4 0 9994 2 46812 97.4372 185.5767 0006700 124.1847 236.0021 15.16398605 26774 FLOCK 4V-26 1 46825U 20061BQ 21110.96990859 .00004026 00000-0 21550-3 0 9992 2 46825 97.4474 185.8105 0006471 159.4451 200.7062 15.15578604 26363